Regional Weather Roundup
Issued by NWS Kansas City/Pleasant Hill, MO

Home | Current Version | Previous Version | Graphics & Text | Print | Product List | Glossary Off
Versions: 1 2 3 4 5 6 7 8 9 10 11 12 13 14 15 16 17 18 19 20 21 22 23 24 25 26 27 28 29 30 31 32 33 34 35 36 37 38 39 40 41 42 43 44 45 46 47 48 49 50

000
ASUS43 KEAX 011110
RWREAX

WEATHER ROUNDUP FOR EASTERN KANSAS AND NORTHWEST MISSOURI
NATIONAL WEATHER SERVICE KANSAS CITY/PLEASANT HILL MO
600 AM CDT MON SEP 01 2014

KSZ040-057-103>105-MOZ028-029-037-043-011200-
...KANSAS CITY METROPOLITAN AREA...

CITY           SKY/WX    TMP DP  RH WIND       PRES   REMARKS
K.C. INTL      CLOUDY    66  63  90 S9        29.78R
K.C. DOWNTOWN  CLOUDY    68  64  87 S7        29.77R
LEES SUMMIT    NOT AVBL
OLATHE - IXD   CLOUDY    65  64  97 S14       29.81S
OLATHE - OJC   CLOUDY    65  63  93 S9        29.80R
LAWRENCE       CLOUDY   N/A N/A N/A S10       29.80R

$$

MOZ001>008-011>017-020>025-030>033-038>040-044>046-053-054-011200-
...NORTHERN AND CENTRAL MISSOURI...

CITY           SKY/WX    TMP DP  RH WIND       PRES   REMARKS
ST. JOSEPH     CLOUDY    66  64  93 SW8       29.78R
MOSBY          CLOUDY    66  64  94 SW7       29.76S
WHITEMAN AFB   LGT RAIN  66  64  93 SE18G24   29.81F
CLINTON        LGT RAIN  66  66 100 E13       29.89F
SEDALIA        LGT RAIN  67  64  90 SE15      29.89F FOG
WARSAW         NOT AVBL
MARSHALL       CLOUDY    68  66  94 SE18G33   29.73F
CHILLICOTHE      N/A     67  66  97 S9        29.74R
MOBERLY        RAIN      66  63  88 S15       29.87F
KIRKSVILLE     LGT RAIN  66  63  90 S18G29    29.68F

$$

MOZ041-047>049-056>058-063>065-088>090-097-011200-
...EASTERN AND SOUTHERN MISSOURI...

CITY           SKY/WX    TMP DP  RH WIND       PRES   REMARKS
ST. LOUIS INTL MOCLDY    77  71  82 SW14      29.89R
SPIRIT OF STL  PTCLDY    75  71  87 SW6       29.87R
COLUMBIA       LGT RAIN  67  65  93 SW13      29.98R
JEFFERSON CITY LGT RAIN  68  65  90 W8        29.97R
MEXICO         LGT RAIN N/A N/A N/A SW14      29.93R
HANNIBAL       LGT RAIN  70  64  83 SW9       29.88R
ROLLA          CLOUDY    68  65  90 W18G25    29.97R
LEBANON        TSTM      66  63  88 N12G22    30.01F
OSAGE BEACH    CLOUDY    66  63  88 NW5       30.01R
SPRINGFIELD    RAIN      64  61  90 N10       30.01R
BRANSON        CLOUDY    72  70  94 CALM      30.00R
NEVADA         LGT RAIN  64  63  94 E14       29.92F
JOPLIN         LGT RAIN  64  63  96 E9        29.96R
WEST PLAINS    PTCLDY    72  69  90 S6        29.99R

$$

IAZ060-094-KSZ022-034>040-054-083-096-NEZ052-066-093-011200-
...KANSAS...SOUTHEAST NEBRASKA AND IOWA...

CITY           SKY/WX    TMP DP  RH WIND       PRES   REMARKS
TOPEKA         CLOUDY    68  66  93 S9        29.81R
MANHATTAN      MOCLDY    65  32  29 SW9       29.83R
EMPORIA        LGT RAIN  63  63 100 S13       29.85S
CHANUTE        TSTM      65  63  93 E15       29.91F FOG
WICHITA        MOCLDY    67  60  78 E15G22    29.86S
OMAHA          PTCLDY    68  64  87 W3        29.74R
LINCOLN        CLEAR     64  59  83 NW7       29.78R
FALLS CITY     CLOUDY    68  65  90 SW8       29.78R
LAMONI         CLOUDY    66  63  90 SW10      29.77R
DES MOINES     CLOUDY    69  64  84 SW17      29.73R

$$




USA.gov is the U.S. government's official web portal to all federal, state and local government web resources and services.